Погода в Октябрьском

Россия / Костромская область     58°19′04″N   44°19′34″E
темп.,
°C
ветер,
м/с
пор.,
м/с
влажн.,
%
обл.,
%
осадки,
мм/ч
давл.,
гПа
погр.,
м
13 мая, чт
чт1300:00+15вюв378511 0.0 1024122
03:00+12юв239073 0.0 102445
06:00+16вюв237735 0.0 1023109
09:00+20юв475334 0.0 1023623
12:00+24ююв584254 0.0 10222023
15:00+25юв584095 0.0 10202709
18:00+20юв4106433 0.1 1018548
21:00+18юв4127177 0.4 1017765
14 мая, пт
пт1400:00+14ююв3129311 2.8 1017426
03:00+13ююз269929 2.8 1018171
06:00+14зюз13900 0.0 1019158
09:00+19зюз12615 0.0 1019650
12:00+22ююз2345100 0.0 10191441
15:00+22юз344375 0.0 10181833
18:00+21юз23545 0.0 1017219
21:00+16юз117251 0.0 101811
15 мая, сб
сб1500:00+14юв22778 0.0 101712
03:00+14вюв258071 0.1 101683
06:00+16юв31090100 0.8 1015340
09:00+20ююв3779100 1.6 1014542
12:00+26ю475165 0.0 10121467
15:00+27ююв58456 0.0 10101955
18:00+23ююз5106799 0.6 10091126
21:00+18ююз514845 1.7 1011770
16 мая, вс
вс1600:00+16ююз3128957 0.4 1011448
03:00+14ю3119647 0.4 1011353
06:00+16ююз411893 0.0 1012504
09:00+20ююз59585 0.0 10121236
12:00+22ююз6104621 0.0 10121880
15:00+23ююз610447 0.0 10112425
18:00+20зюз49596 0.3 10111309
21:00+15ююз298420 0.4 1012208
17 мая, пн
пн1700:00+13юз311915 0.0 1013301
03:00+12ююз310975 0.0 1014254
06:00+15юз39850 0.0 1014331
09:00+20юз47610 0.0 10151001
12:00+23зюз4648100 0.0 10151735
15:00+24зюз4646100 0.0 10151945
18:00+22зюз2460100 0.0 1016140
21:00+17юз1180100 0.0 101611